Погода в Кириковке

Украина / Сумская область     50°21′10″N   35°07′14″E
темп.,
°C
ветер,
м/с
пор.,
м/с
влажн.,
%
обл.,
%
осадки,
мм/ч
давл.,
гПа
погр.,
м
14 июня, пн
пн1400:00+15в119123 0.0 101011
03:00+14вюв33935 0.0 101046
06:00+15вюв24915 0.0 1011107
09:00+20юв457711 0.0 1012464
12:00+24ююв34635 1.0 10131179
15:00+25в235732 1.8 10131696
18:00+24всв2366100 0.1 1013185
21:00+19всв3381100 0.3 101428
15 июня, вт
вт1500:00+17св22865 0.0 101414
03:00+16ссв2293100 3.2 101420
06:00+17ссв24925 0.1 101395
09:00+21св34800 0.1 1013474
12:00+25всв44650 0.0 10121210
15:00+25всв336411 1.6 10111245
18:00+24св23713 0.4 1010979
21:00+19всв338685 2.9 101037
16 июня, ср
ср1600:00+18всв229022 0.6 101014
03:00+17всв229162 0.6 101018
06:00+18всв2290100 0.1 101050
09:00+21всв2380100 0.1 1011377
12:00+24юв3369100 1.8 1012893
15:00+26св225943 2.2 10111365
18:00+23ссв468380 1.4 1012382
21:00+19всв359253 2.9 101491
17 июня, чт
чт1700:00+18всв3895100 0.8 1015160
03:00+17св512953 1.2 1015257
06:00+18св5119610 0.0 1017348
09:00+21всв711825 0.0 1018642
12:00+24всв796918 0.0 10191262
15:00+25всв897063 0.1 10191388
18:00+23всв710750 0.0 1020989
21:00+19всв513770 0.0 1022405
18 июня, пт
пт1800:00+17всв513830 0.0 1022360
03:00+15всв513850 0.0 1023345
06:00+15всв514850 0.0 1024378
09:00+19в711700 0.0 1025755
12:00+22в79604 0.0 10251275
15:00+23в6860100 0.0 10251460
18:00+22всв5872100 0.0 1025938
21:00+17в49860 0.0 1026200